Miscellaneous Local Product
Issued by NWS Hastings, NE

Home | Current Version | Previous Version | Graphics & Text | Print | Product List | Glossary On
Versions: 1 2 3 4 5 6 7 8 9 10 11 12 13 14 15 16 17 18 19 20 21 22 23 24 25 26 27 28 29 30 31 32 33 34 35 36 37 38 39 40 41 42 43 44 45 46 47 48 49 50
000
AXUS43 KGID 192302
MISGRI

GID CWA HOURLY WEATHER ROUNDUP
NATIONAL WEATHER SERVICE HASTINGS NE
500 PM CST SUN FEB 19 2017

NOTE: "FAIR" INDICATES FEW OR NO CLOUDS BELOW 12,000 FEET WITH NO
SIGNIFICANT WEATHER AND/OR OBSTRUCTIONS TO VISIBILITY.

...SOUTH CENTRAL NEBRASKA...

CITY           SKY/WX    TMP DP  RH WIND       PRES   REMARKS
GRAND ISLAND   MOSUNNY   65  50  58 S17G24    29.73S
HASTINGS       MOSUNNY   66  49  54 SE17G25   29.74S
KEARNEY        PTSUNNY   70  45  40 S17G26    29.71S
ORD            MOSUNNY   70  41  34 S15       29.67S
YORK           MOSUNNY   64  50  59 S17       29.76S
AURORA         PTSUNNY   65  49  57 S18       29.74F
LEXINGTON      MOSUNNY   70  42  36 S18G24    29.67F
HOLDREGE       MOSUNNY   69  41  35 S24G30    29.69S
HEBRON         MOSUNNY   61  50  68 S17       29.78S

...NEBRASKA PANHANDLE...

CITY           SKY/WX    TMP DP  RH WIND       PRES   REMARKS
CHADRON        CLOUDY    62  32  32 S10       29.53F
ALLIANCE       CLOUDY    57  30  35 SE7       29.58S
SCOTTSBLUFF    CLOUDY    57  34  41 E3        29.56F
SIDNEY         CLOUDY    61  35  37 SE25G39   29.56F

...WESTERN AND NORTH CENTRAL NEBRASKA...

CITY           SKY/WX    TMP DP  RH WIND       PRES   REMARKS
VALENTINE      CLOUDY    64  36  35 S15G25    29.58F
AINSWORTH      MOSUNNY   63  42  46 S13       29.61F
ONEILL         MOSUNNY   69  44  40 S10G18    29.65S
BROKEN BOW     MOSUNNY   68  44  42 S22G31    29.66F
IMPERIAL       PTSUNNY   66  41  40 S18G26    29.62S
NORTH PLATTE   MOSUNNY   68  42  38 SE12      29.63F
MCCOOK         CLOUDY    74  49  41 S29G39    29.63F

...EASTERN NEBRASKA...

CITY           SKY/WX    TMP DP  RH WIND       PRES   REMARKS
NORFOLK        CLOUDY    66  47  50 S18       29.71S
SO SIOUX CITY  CLOUDY    66  52  60 S16       29.74F
TEKAMAH        PTSUNNY   66  52  60 S16       29.77F
COLUMBUS       MOSUNNY   66  48  52 S17       29.75S
ALBION         MOSUNNY   67  46  45 S16G22    29.71R
OMAHA EPPLEY   PTSUNNY   71  51  49 S18G25    29.79S
OFFUTT AFB     SUNNY     70  54  56 S15       29.79F
MILLARD        SUNNY     72  54  54 S10       29.79S
LINCOLN        MOSUNNY   69  51  52 S17G28    29.78S
NEBRASKA CITY  MOSUNNY   69  46  44 S15       29.82S
BEATRICE       MOSUNNY   65  53  63 S15G22    29.81S
FALLS CITY     SUNNY     70  54  56 S17G24    29.83S

...NORTHERN KANSAS...

CITY           SKY/WX    TMP DP  RH WIND       PRES   REMARKS
GOODLAND       CLOUDY    65  40  39 S18G26    29.66S
HILL CITY      SUNNY     74  48  39 S24G33    29.70R
NORTON         CLEAR     73  39  29 SE16G31   29.68S
PHILLIPSBURG   SUNNY     73  45  35 SE18G30   29.72S
SMITH CENTER   SUNNY     66  48  52 SE16      29.74S
HAYS           MOSUNNY   66  51  58 SE20      29.74S
RUSSELL        SUNNY     67  51  56 S21G31    29.75S
CONCORDIA      SUNNY     62  52  69 SE16      29.79F
SALINA         MOSUNNY   66  54  65 S20       29.81S
TOPEKA         SUNNY     65  55  70 S6        29.87F



USA.gov is the U.S. government's official web portal to all federal, state and local government web resources and services.